Location: Arboucave
(43.6130°N, 0.4343°W)
Time: 13:12:28
(UTC+00:00)

SKYMED 2 - Pass Details

Date: 17 November 2025
Orbit: 621 x 623 km, 97.9° (Epoch: 11 December)

Event Time Altitude Azimuth Distance (km) Brightness Sun altitude
Exits shadow 17:45:02 - 20° (NNE) 2,597 6.4 -12.8°
Reaches altitude 10° 17:46:33 10° 25° (NNE) 2,000 5.8 -13.0°
Maximum altitude 17:50:44 46° 99° (E) 842 3.8 -13.8°
Drops below altitude 10° 17:54:53 10° 173° (S) 1,984 6.2 -14.5°
Sets 17:57:08 0° 179° (S) 2,885 7.1 -14.9°
